Temp
12 12 12 12 12 12 12 12 12 12 12 12 12 13 13 13 13 13 13 13 13 13 13 13 13 13 13 13 13 13 13 13 13 13 13 13 13 13 13 13 13 13 13 13 13 13 13 13 13 13 13 13 13 13 13 13 13 13 13 13 13 12 12 12 12 12 12 12 12
12 12 12 12 12 11 11 11 12 12 12 12 12 13 13 13 13 13 13 13 13 13 13 13 13 13 13 13 13 13 13 13 13 13 13 13 13 13 13 13 13 13 13 13 13 13 13 13 13 13 13 13 13 13 13 13 13 13 13 13 13 12 12 12 12 12 12 12 12
12 12 11 11 11 11 11 11 11 12 12 12 13 13 13 13 13 13 13 13 13 13 13 13 13 13 13 13 13 13 13 13 13 13 13 13 13 13 13 13 13 13 13 13 13 13 13 13 13 13 12 12 12 12 12 12 13 13 13 13 13 13 13 13 12 12 13 13 12
11 11 11 11 11 11 11 11 12 12 12 13 13 13 13 13 12 12 12 12 12 12 12 12 13 13 13 13 12 12 12 12 13 13 13 13 13 13 13 13 13 13 13 13 13 13 13 13 13 12 12 12 12 12 12 12 13 13 13 13 13 13 13 13 12 13 13 13 12
11 11 11 11 11 11 11 12 12 12 12 13 13 13 13 12 12 12 12 12 12 12 12 12 12 12 13 13 13 13 13 13 13 13 13 13 13 13 13 12 12 12 13 13 13 13 13 13 12 12 12 11 12 12 12 12 13 13 13 12 12 12 12 12 12 13 13 13 12
11 11 11 11 11 11 11 11 11 12 12 12 12 12 13 13 12 12 12 12 12 12 12 12 12 12 12 12 13 13 13 13 13 12 12 12 12 12 12 12 12 12 12 13 13 13 13 12 12 12 12 11 12 12 12 12 12 12 12 12 12 12 12 12 12 12 13 12 11
12 11 11 11 11 11 11 11 11 12 12 12 12 12 13 13 13 12 12 12 12 12 12 12 12 12 12 12 12 12 12 12 12 12 12 11 11 11 11 12 12 12 12 12 12 12 12 12 12 11 11 11 11 12 12 12 12 12 12 12 12 12 12 12 12 12 12 12 11
12 12 12 12 11 11 11 11 11 11 12 12 12 12 12 13 13 13 12 12 12 12 12 12 12 12 12 12 12 12 12 12 12 12 11 11 11 11 11 11 11 12 12 12 12 12 11 11 11 11 11 11 11 12 12 12 12 12 12 12 12 12 12 12 12 12 12 12 11
12 13 12 12 12 11 11 11 11 11 11 12 12 12 12 12 12 12 12 12 12 12 12 12 12 12 12 12 12 12 12 12 12 11 11 11 11 11 11 11 11 12 12 12 12 11 11 11 11 11 11 11 11 12 12 12 12 12 12 12 12 12 12 12 12 12 12 12 12
12 13 12 12 12 11 11 11 11 11 11 12 12 12 12 12 12 12 12 12 12 12 12 12 12 12 12 12 12 12 12 11 11 11 11 11 11 11 11 11 11 12 12 12 11 11 11 10 10 10 10 11 11 12 12 12 12 11 11 11 11 12 12 12 12 12 12 12 12
12 12 12 12 11 11 11 11 11 11 11 12 12 12 12 12 12 12 12 12 12 12 12 12 12 12 12 12 12 12 12 12 11 11 11 11 11 11 11 11 12 12 12 11 11 11 10 10 10 10 10 10 11 12 12 12 11 11 11 11 11 12 12 12 12 11 11 12 12
11 11 11 11 11 11 11 11 11 11 11 11 12 12 12 11 11 11 12 12 12 12 12 12 12 12 12 12 12 12 12 12 11 11 11 11 11 11 11 11 11 12 12 11 11 11 10 10 10 10 10 10 11 11 12 12 11 11 11 12 12 12 12 12 12 12 11 11 11
11 11 11 11 10 11 11 11 11 11 11 11 11 11 11 11 11 11 12 12 13 12 12 12 12 11 11 11 12 12 12 12 11 11 11 10 10 10 10 11 11 11 11 11 11 10 10 10 10 10 10 10 10 11 11 11 12 12 12 12 12 12 12 11 11 12 11 11 10
11 11 11 10 10 10 10 11 11 11 11 11 11 11 11 11 11 11 12 12 13 12 12 12 11 11 11 11 11 11 11 11 11 11 11 10 10 10 10 10 11 11 11 11 11 10 10 10 10 10 10 10 10 10 10 11 11 12 12 12 12 11 11 11 11 11 11 11 10
11 11 11 11 10 10 10 10 11 11 11 11 11 11 11 11 11 11 12 12 12 12 12 12 11 11 11 11 11 11 11 11 11 11 10 10 10 10 10 11 11 12 12 12 11 11 10 10 10 10 10 10 10 10 10 11 11 12 12 12 12 11 11 10 10 11 11 11 10
11 11 11 11 11 11 11 11 11 11 11 11 11 11 11 11 11 11 11 12 12 12 11 11 11 11 11 11 11 11 11 11 10 10 10 10 10 10 10 11 11 12 12 12 11 11 11 10 10 10 10 10 10 10 10 10 11 11 11 12 11 11 11 10 10 11 11 11 10
10 10 10 10 11 11 11 11 11 11 11 11 11 11 11 11 11 11 11 12 12 12 11 11 11 11 11 11 11 11 11 11 11 10 10 10 10 10 11 11 12 12 12 12 11 11 11 10 10 10 10 10 10 10 10 10 10 10 11 11 11 11 10 10 10 11 11 11 10
10 10 10 10 10 10 10 10 10 10 11 11 11 11 11 11 11 11 11 12 12 12 12 11 11 11 11 11 11 11 10 10 10 10 10 10 10 10 11 11 11 11 11 11 11 11 11 10 10 10 10 10 10 10 10 10 10 10 10 10 10 10 10 10 11 11 11 10 10
10 10 10 10 10 10 10 10 10 10 10 10 10 10 10 10 11 11 11 11 12 12 12 12 11 11 11 11 11 10 10 10 10 10 10 10 10 10 10 11 10 10 10 11 11 11 11 10 10 10 10 10 10 10 10 10 9 9 9 9 9 9 10 10 10 11 10 10 10
10 10 10 10 10 10 10 10 10 10 10 10 10 10 10 10 10 11 11 11 12 12 12 12 11 11 11 11 11 10 10 10 10 10 10 10 10 10 10 10 10 10 10 11 11 11 10 10 10 10 10 10 10 10 10 10 9 9 9 9 9 9 10 10 10 10 10 10 10
10 10 10 10 10 10 10 10 10 10 10 10 10 10 10 10 10 10 11 11 11 11 11 11 11 11 11 11 10 10 10 10 10 10 10 10 10 10 10 10 10 10 10 11 11 11 10 10 9 9 10 10 10 10 10 9 9 9 9 9 9 9 10 10 10 10 10 10 9
10 11 11 11 11 11 11 11 11 11 11 11 10 10 10 10 10 10 11 11 11 11 11 11 11 11 11 10 10 10 10 10 10 10 10 10 10 10 10 10 10 10 10 11 10 10 10 9 9 9 9 10 10 10 9 9 9 9 9 9 9 10 10 10 10 10 9 9 9
11 12 12 12 12 12 11 11 11 11 11 11 11 10 10 10 10 10 10 10 11 11 11 10 10 10 10 10 10 10 10 10 10 10 10 10 10 10 10 10 10 10 10 10 10 10 10 9 9 9 9 9 9 9 9 9 9 9 9 9 9 10 10 9 9 9 9 8 8
12 12 12 12 12 11 11 11 11 11 11 11 11 10 10 10 10 10 10 10 10 10 10 10 10 10 10 10 10 10 10 10 10 10 10 10 10 10 10 10 10 10 10 10 10 10 10 10 9 9 9 9 9 9 9 9 9 9 9 9 9 9 9 9 9 8 8 8 8
11 11 11 11 11 11 10 10 10 10 10 10 10 10 10 10 10 10 10 10 10 10 10 10 10 10 10 10 10 10 10 10 10 10 10 10 10 10 10 10 10 10 10 10 10 10 10 10 10 9 9 9 9 9 9 9 9 9 9 9 9 9 9 9 8 8 8 8 8
10 10 10 10 10 10 10 10 10 10 10 10 10 10 10 10 10 10 10 10 10 10 10 10 10 9 9 9 9 9 10 10 10 10 10 10 10 10 10 10 10 10 10 10 10 9 9 9 9 9 9 9 9 9 9 9 9 9 9 9 9 9 9 8 8 8 8 8 8
10 10 10 10 10 10 10 10 10 10 10 10 10 10 10 10 10 10 10 10 10 10 10 10 10 9 9 9 9 9 9 10 10 10 10 10 10 10 10 10 10 9 9 9 9 9 9 9 9 9 9 9 9 9 9 9 9 9 9 9 9 9 8 8 8 8 8 8 9
10 10 10 10 10 10 10 10 10 10 10 10 10 10 10 10 10 10 10 10 10 10 10 10 10 9 9 9 9 9 9 9 10 10 10 10 9 9 9 9 9 9 9 9 9 9 9 9 9 9 9 9 9 8 8 8 8 9 9 8 8 8 8 8 7 8 8 8 8
9 9 9 9 9 9 9 9 9 10 10 10 10 9 9 9 10 10 10 10 10 10 10 10 10 9 9 9 9 9 9 9 9 9 9 9 9 9 9 9 9 9 9 9 9 9 9 9 9 9 9 9 8 8 8 8 8 8 8 8 8 7 7 7 7 8 8 8 8
9 9 9 9 9 9 9 9 9 9 9 9 9 9 9 9 9 9 9 9 9 9 10 10 9 9 9 9 9 9 9 9 9 9 9 9 9 9 9 8 8 9 9 9 9 9 9 9 9 9 9 8 8 8 8 8 8 8 8 8 7 7 7 7 7 7 7 7 7
9 9 9 9 9 9 9 9 9 9 9 9 9 9 9 9 9 9 9 9 9 9 9 9 9 9 9 9 9 9 9 9 9 9 9 9 9 8 8 8 8 9 9 9 9 9 8 8 8 8 8 8 8 8 8 8 8 8 8 8 8 8 8 7 7 7 7 7 7
8 8 8 8 9 9 9 9 9 9 9 9 9 9 9 9 9 9 9 9 9 9 9 9 9 9 9 9 9 9 9 9 9 8 8 8 8 8 8 8 8 9 9 9 8 8 8 8 8 8 8 8 8 8 8 8 8 8 8 8 8 7 7 7 7 7 7 7 7
8 8 8 8 8 8 8 8 8 8 8 8 8 8 8 8 8 8 8 8 8 8 8 8 8 8 8 8 8 8 8 8 8 8 8 8 8 8 8 8 8 8 8 8 8 8 8 8 8 8 8 8 8 8 8 8 8 8 8 7 7 7 7 7 7 7 7 7 7
8 8 8 8 8 8 8 8 8 8 8 8 8 8 8 8 8 8 8 8 8 8 8 8 8 8 8 8 8 8 8 8 8 8 8 8 8 8 8 8 8 8 8 8 8 8 8 8 8 8 8 8 8 8 8 8 8 7 7 7 7 7 7 7 7 6 6 6 6
8 8 8 8 8 8 8 8 8 8 8 7 7 7 7 7 7 7 7 7 7 7 7 7 7 7 8 8 8 8 8 8 8 8 8 8 8 8 8 8 8 8 8 8 8 8 8 8 8 8 8 8 7 7 7 7 7 7 7 6 6 6 6 6 6 6 6 6 5
8 8 8 8 8 8 8 7 7 7 7 7 7 7 7 7 7 7 7 7 7 7 7 7 7 7 7 7 7 7 8 8 7 7 7 8 8 8 8 8 8 8 8 8 8 8 7 7 7 7 7 7 7 7 7 6 6 6 6 6 6 6 6 6 6 5 5 5 5
8 8 8 8 8 7 7 7 7 7 7 7 7 7 7 7 7 7 7 7 7 7 7 7 7 7 7 7 7 7 7 8 8 8 8 8 8 8 8 8 8 8 8 8 8 7 7 7 7 7 7 7 7 6 6 6 6 6 6 6 6 6 5 5 5 5 5 5 4
7 7 7 7 7 7 7 7 7 7 7 7 7 7 7 7 7 7 7 7 7 7 7 7 7 7 7 7 7 7 8 8 8 7 7 8 8 8 8 7 7 7 7 7 7 7 7 7 7 6 6 6 6 6 6 6 6 6 6 6 6 5 5 5 5 5 4 4 4
7 7 7 7 7 7 7 7 7 7 7 7 7 7 7 7 7 7 7 7 7 7 7 7 7 7 7 7 7 7 8 8 8 8 7 7 7 7 7 7 7 7 7 7 7 7 7 6 6 6 6 6 6 6 6 6 6 6 6 5 5 5 5 5 4 4 4 4 4
7 7 6 6 6 6 6 6 6 6 6 7 7 7 7 7 7 7 7 7 7 7 7 7 7 7 7 7 8 8 8 8 8 8 8 8 7 7 7 7 7 7 7 7 7 7 7 6 6 6 6 6 6 6 5 5 5 5 5 5 5 5 5 4 4 4 4 4 4
6 6 6 6 6 6 6 6 6 6 6 6 6 7 7 7 7 7 7 7 7 7 7 7 8 8 8 8 8 8 8 8 8 8 8 8 8 7 7 7 7 6 6 6 6 6 6 6 6 5 5 5 5 5 5 5 5 5 5 5 4 4 4 4 4 4 4 4 3
Height
1439 1441 1444 1446 1448 1450 1452 1454 1455 1457 1458 1460 1462 1463 1464 1464 1465 1466 1469 1471 1474 1475 1477 1479 1480 1481 1483 1484 1485 1486 1488 1489 1491 1493 1494 1496 1497 1499 1500 1501 1503 1504 1505 1506 1506 1508 1509 1510 1511 1512 1512 1513 1513 1514 1514 1515 1516 1517 1518 1519 1520 1522 1523 1524 1525 1526 1527 1529 1530
1439 1442 1444 1447 1449 1450 1452 1454 1455 1456 1458 1459 1460 1462 1463 1464 1465 1466 1468 1470 1473 1474 1476 1478 1480 1481 1482 1484 1485 1486 1488 1489 1490 1492 1494 1495 1496 1498 1499 1500 1501 1502 1503 1504 1504 1506 1508 1509 1511 1511 1512 1512 1512 1512 1513 1514 1514 1515 1516 1517 1519 1520 1522 1523 1524 1524 1525 1527 1529
1439 1441 1444 1446 1448 1450 1451 1453 1454 1455 1456 1458 1459 1461 1462 1464 1465 1466 1468 1470 1472 1474 1475 1477 1479 1480 1482 1483 1485 1486 1487 1489 1490 1491 1493 1494 1495 1496 1497 1499 1499 1500 1500 1501 1502 1504 1506 1508 1510 1511 1511 1512 1512 1512 1511 1512 1513 1514 1514 1516 1518 1519 1521 1522 1522 1522 1524 1526 1529
1438 1440 1443 1445 1447 1448 1449 1451 1453 1454 1455 1456 1458 1460 1462 1463 1464 1466 1467 1469 1470 1472 1474 1476 1478 1479 1481 1483 1484 1485 1487 1488 1489 1490 1491 1493 1494 1494 1496 1497 1498 1498 1498 1499 1500 1502 1505 1507 1509 1510 1511 1512 1513 1512 1510 1510 1511 1512 1513 1515 1517 1518 1519 1520 1520 1521 1522 1525 1529
1438 1439 1442 1444 1445 1446 1448 1449 1451 1453 1454 1455 1457 1459 1461 1463 1464 1465 1467 1468 1469 1471 1473 1474 1476 1478 1480 1481 1483 1484 1486 1487 1488 1489 1490 1491 1492 1493 1494 1495 1496 1496 1497 1498 1499 1502 1504 1506 1508 1510 1511 1512 1512 1511 1510 1509 1510 1511 1512 1514 1516 1517 1518 1519 1519 1520 1522 1525 1528
1436 1439 1440 1442 1444 1445 1447 1449 1451 1452 1454 1455 1457 1459 1461 1463 1464 1465 1467 1468 1469 1470 1472 1473 1475 1477 1479 1480 1482 1483 1484 1486 1487 1488 1489 1489 1491 1492 1493 1494 1494 1494 1495 1497 1499 1501 1504 1506 1508 1509 1510 1511 1511 1510 1509 1508 1509 1510 1511 1513 1514 1516 1517 1518 1519 1519 1521 1524 1527
1435 1437 1439 1441 1443 1445 1447 1449 1451 1453 1454 1455 1457 1459 1461 1462 1464 1465 1466 1467 1468 1470 1471 1473 1474 1476 1477 1479 1480 1482 1483 1484 1486 1487 1488 1489 1490 1491 1492 1492 1493 1493 1494 1496 1498 1501 1503 1505 1507 1509 1509 1509 1509 1509 1508 1507 1508 1509 1510 1512 1513 1514 1516 1517 1518 1519 1521 1524 1526
1434 1436 1438 1440 1443 1444 1446 1448 1450 1452 1453 1455 1456 1459 1460 1462 1463 1464 1465 1467 1468 1469 1471 1472 1474 1475 1477 1478 1479 1481 1482 1484 1485 1486 1488 1489 1490 1490 1491 1491 1491 1492 1493 1495 1498 1500 1503 1506 1508 1508 1509 1509 1508 1507 1506 1505 1506 1508 1509 1511 1512 1514 1515 1516 1518 1519 1521 1523 1525
1433 1435 1438 1440 1442 1444 1446 1447 1449 1450 1452 1453 1455 1457 1459 1460 1462 1463 1464 1466 1467 1469 1470 1472 1474 1475 1477 1479 1479 1480 1481 1483 1484 1485 1487 1488 1489 1489 1490 1490 1490 1491 1492 1494 1498 1501 1504 1507 1508 1509 1508 1508 1507 1505 1504 1504 1505 1507 1509 1510 1511 1513 1514 1516 1517 1519 1521 1523 1524
1432 1434 1437 1439 1442 1444 1445 1447 1448 1449 1450 1452 1454 1455 1457 1459 1460 1461 1463 1464 1466 1468 1469 1470 1472 1474 1476 1478 1480 1480 1481 1482 1484 1485 1486 1487 1488 1489 1489 1489 1489 1490 1491 1494 1498 1501 1504 1507 1508 1509 1508 1507 1505 1504 1503 1502 1503 1505 1508 1509 1510 1511 1512 1514 1516 1518 1520 1522 1523
1432 1434 1436 1439 1441 1444 1445 1446 1447 1448 1449 1450 1452 1454 1455 1457 1459 1460 1462 1463 1465 1466 1468 1469 1471 1473 1474 1477 1479 1480 1481 1482 1483 1484 1485 1487 1487 1488 1489 1489 1489 1490 1491 1494 1497 1501 1504 1505 1507 1508 1508 1507 1505 1504 1502 1501 1502 1504 1506 1507 1508 1508 1509 1512 1514 1516 1519 1520 1521
1432 1434 1436 1439 1441 1443 1445 1446 1446 1447 1448 1449 1451 1452 1454 1455 1457 1459 1460 1462 1463 1464 1466 1468 1469 1471 1473 1474 1476 1478 1479 1480 1482 1483 1485 1486 1487 1487 1487 1488 1488 1489 1490 1493 1496 1499 1501 1503 1504 1505 1506 1506 1505 1504 1503 1502 1502 1503 1504 1505 1506 1506 1508 1510 1513 1515 1517 1518 1519
1432 1434 1436 1439 1441 1443 1444 1445 1445 1446 1447 1448 1450 1451 1452 1454 1455 1457 1459 1460 1461 1463 1464 1466 1468 1470 1471 1473 1474 1476 1477 1478 1480 1482 1484 1485 1486 1486 1486 1486 1486 1487 1488 1490 1494 1496 1498 1500 1501 1502 1503 1504 1504 1504 1503 1502 1502 1502 1503 1504 1504 1505 1507 1509 1512 1514 1516 1517 1517
1433 1434 1436 1439 1441 1442 1443 1444 1444 1445 1446 1447 1448 1449 1451 1452 1454 1455 1457 1459 1460 1462 1463 1465 1467 1469 1470 1472 1474 1475 1476 1477 1479 1480 1482 1484 1485 1484 1484 1483 1483 1484 1486 1488 1491 1494 1496 1497 1499 1499 1500 1501 1502 1502 1502 1501 1500 1500 1500 1501 1502 1503 1504 1507 1510 1513 1515 1515 1516
1432 1434 1436 1438 1439 1441 1442 1443 1444 1444 1445 1446 1447 1448 1450 1451 1453 1454 1456 1458 1459 1461 1463 1464 1466 1468 1470 1472 1473 1474 1476 1477 1477 1479 1480 1482 1483 1482 1481 1481 1481 1482 1484 1486 1488 1491 1493 1495 1496 1497 1498 1498 1499 1499 1499 1499 1498 1497 1497 1497 1498 1499 1502 1504 1507 1510 1513 1514 1515
1431 1433 1434 1436 1437 1438 1440 1442 1443 1444 1445 1446 1447 1448 1449 1450 1452 1453 1455 1457 1459 1461 1463 1464 1466 1468 1470 1471 1473 1474 1475 1476 1477 1477 1478 1479 1479 1479 1479 1479 1479 1480 1482 1484 1488 1490 1492 1494 1494 1495 1495 1495 1496 1497 1497 1496 1495 1494 1494 1494 1494 1496 1499 1501 1504 1507 1510 1512 1513
1431 1432 1434 1434 1435 1437 1438 1440 1441 1443 1444 1445 1446 1447 1448 1449 1450 1452 1454 1456 1458 1460 1462 1464 1465 1467 1469 1471 1472 1473 1474 1475 1476 1476 1476 1476 1476 1477 1477 1478 1478 1479 1481 1484 1488 1490 1492 1493 1493 1493 1493 1493 1493 1494 1494 1494 1493 1492 1492 1491 1492 1494 1496 1498 1501 1505 1508 1509 1510
1432 1433 1434 1435 1436 1437 1438 1439 1441 1442 1444 1445 1445 1446 1446 1447 1449 1451 1453 1455 1457 1459 1460 1462 1464 1465 1467 1469 1470 1472 1473 1474 1474 1475 1475 1474 1474 1474 1475 1476 1477 1478 1480 1483 1487 1489 1490 1491 1491 1491 1491 1491 1491 1491 1491 1491 1490 1490 1490 1490 1491 1492 1494 1496 1499 1503 1506 1507 1508
1432 1433 1434 1435 1436 1437 1439 1440 1441 1442 1444 1444 1445 1445 1446 1447 1448 1450 1452 1454 1456 1458 1459 1460 1462 1463 1465 1467 1468 1469 1471 1472 1473 1474 1473 1473 1472 1472 1473 1474 1475 1476 1478 1479 1484 1487 1489 1489 1488 1488 1488 1488 1488 1489 1489 1489 1489 1489 1489 1490 1490 1491 1492 1494 1497 1500 1503 1504 1506
1433 1434 1434 1435 1436 1438 1439 1440 1441 1442 1443 1444 1445 1445 1446 1447 1449 1450 1451 1453 1455 1457 1458 1459 1461 1462 1464 1465 1467 1468 1469 1470 1471 1472 1472 1471 1470 1470 1470 1471 1473 1474 1475 1477 1481 1484 1486 1486 1486 1486 1486 1487 1487 1487 1488 1488 1488 1489 1489 1489 1489 1490 1491 1493 1495 1498 1500 1502 1504
1434 1434 1435 1436 1437 1438 1439 1440 1441 1442 1443 1444 1445 1446 1447 1448 1449 1450 1451 1453 1454 1456 1457 1459 1460 1462 1463 1464 1465 1466 1467 1468 1469 1469 1469 1469 1469 1469 1469 1470 1472 1473 1474 1476 1479 1482 1484 1484 1484 1485 1485 1486 1486 1486 1487 1487 1488 1488 1489 1489 1489 1489 1490 1492 1494 1496 1498 1500 1502
1434 1435 1436 1436 1437 1439 1440 1441 1442 1442 1443 1444 1444 1445 1447 1448 1449 1450 1451 1453 1454 1455 1457 1458 1459 1461 1462 1463 1464 1465 1466 1467 1467 1468 1468 1468 1468 1469 1469 1470 1471 1473 1474 1476 1478 1480 1482 1483 1483 1484 1484 1485 1485 1485 1486 1487 1487 1488 1488 1489 1489 1489 1490 1492 1493 1495 1497 1498 1500
1434 1435 1435 1436 1437 1439 1439 1441 1442 1443 1443 1444 1444 1445 1446 1447 1449 1449 1451 1452 1453 1454 1456 1457 1458 1460 1461 1462 1463 1464 1464 1465 1466 1466 1467 1467 1468 1469 1469 1470 1471 1472 1473 1475 1477 1478 1480 1481 1482 1482 1483 1484 1484 1484 1485 1486 1486 1487 1488 1488 1489 1489 1490 1491 1492 1494 1495 1497 1498
1433 1434 1434 1435 1436 1438 1439 1440 1441 1442 1443 1444 1444 1445 1446 1447 1448 1449 1450 1451 1452 1453 1454 1456 1457 1459 1460 1461 1462 1463 1464 1464 1465 1465 1466 1467 1467 1468 1468 1469 1470 1471 1473 1474 1476 1477 1478 1479 1480 1481 1482 1482 1483 1484 1484 1485 1485 1486 1487 1487 1488 1488 1489 1490 1491 1492 1494 1495 1496
1433 1434 1434 1435 1436 1437 1439 1439 1440 1441 1443 1444 1444 1446 1447 1448 1448 1449 1450 1451 1452 1453 1454 1455 1457 1458 1459 1460 1461 1462 1463 1463 1464 1464 1465 1465 1466 1467 1467 1468 1469 1470 1472 1473 1474 1476 1477 1478 1479 1480 1481 1481 1482 1483 1483 1484 1484 1485 1486 1486 1487 1487 1488 1489 1490 1491 1493 1494 1495
1434 1434 1435 1436 1437 1438 1439 1440 1441 1442 1443 1444 1445 1446 1446 1447 1448 1449 1450 1451 1452 1453 1454 1455 1456 1458 1459 1459 1460 1461 1462 1463 1463 1464 1464 1464 1465 1466 1467 1468 1469 1470 1471 1472 1474 1475 1476 1477 1478 1479 1479 1480 1481 1482 1482 1483 1483 1484 1484 1485 1486 1486 1487 1488 1490 1491 1492 1494 1495
1434 1435 1435 1436 1437 1438 1439 1440 1441 1442 1443 1444 1444 1445 1446 1447 1448 1449 1450 1452 1453 1453 1454 1455 1456 1457 1458 1459 1460 1461 1462 1462 1463 1463 1464 1464 1464 1465 1466 1467 1468 1469 1470 1471 1473 1474 1475 1476 1477 1478 1479 1479 1480 1481 1481 1482 1482 1483 1483 1484 1485 1486 1487 1488 1489 1491 1492 1493 1494
1434 1435 1435 1436 1437 1437 1438 1439 1440 1441 1442 1443 1444 1445 1446 1447 1448 1449 1451 1452 1453 1453 1454 1455 1455 1456 1457 1458 1459 1460 1461 1461 1462 1462 1463 1464 1464 1465 1466 1467 1468 1469 1470 1471 1472 1473 1474 1475 1476 1477 1478 1478 1479 1479 1480 1480 1481 1482 1482 1483 1484 1485 1487 1488 1490 1491 1492 1492 1493
1434 1434 1435 1435 1436 1437 1438 1439 1440 1441 1442 1443 1444 1445 1446 1447 1449 1449 1450 1451 1452 1453 1454 1454 1455 1456 1457 1458 1458 1459 1460 1460 1461 1462 1463 1463 1464 1465 1466 1467 1468 1469 1470 1471 1472 1473 1474 1474 1475 1476 1476 1477 1478 1478 1479 1479 1480 1481 1482 1483 1484 1485 1486 1488 1489 1490 1490 1491 1491
1433 1434 1434 1435 1436 1437 1438 1439 1440 1441 1442 1443 1444 1445 1446 1447 1448 1449 1450 1451 1452 1453 1453 1454 1454 1455 1456 1457 1458 1458 1459 1460 1461 1462 1462 1463 1464 1465 1466 1467 1468 1469 1469 1471 1471 1472 1473 1474 1474 1475 1475 1476 1477 1477 1478 1479 1480 1480 1481 1482 1483 1484 1486 1487 1488 1489 1489 1489 1490
1433 1434 1434 1435 1436 1437 1438 1439 1440 1441 1442 1443 1444 1444 1446 1447 1448 1448 1449 1450 1451 1452 1453 1453 1454 1454 1455 1456 1457 1458 1459 1460 1461 1462 1462 1463 1464 1465 1466 1467 1467 1468 1469 1470 1471 1472 1472 1473 1474 1474 1475 1475 1476 1477 1478 1479 1479 1480 1481 1482 1483 1484 1485 1486 1486 1487 1488 1488 1488
1434 1434 1435 1435 1436 1437 1438 1438 1439 1440 1441 1442 1443 1444 1445 1446 1447 1448 1449 1449 1450 1451 1452 1453 1454 1454 1455 1456 1457 1458 1459 1460 1461 1461 1462 1463 1464 1465 1465 1466 1467 1468 1469 1470 1470 1471 1472 1473 1473 1474 1474 1475 1476 1477 1478 1478 1479 1480 1481 1482 1482 1483 1484 1484 1485 1486 1486 1486 1487
1434 1434 1435 1435 1436 1436 1437 1438 1439 1440 1441 1442 1443 1444 1444 1446 1446 1447 1448 1449 1450 1451 1452 1453 1454 1455 1455 1456 1457 1458 1459 1459 1460 1461 1462 1463 1464 1464 1465 1466 1467 1468 1469 1469 1470 1471 1472 1472 1473 1474 1474 1475 1475 1476 1477 1478 1479 1479 1480 1481 1481 1482 1483 1484 1484 1484 1485 1485 1486
1434 1435 1435 1436 1436 1436 1437 1438 1439 1440 1441 1442 1443 1444 1444 1446 1447 1448 1449 1449 1450 1451 1452 1453 1454 1455 1455 1456 1457 1458 1458 1459 1460 1461 1462 1462 1463 1464 1464 1465 1466 1467 1468 1469 1470 1471 1471 1472 1472 1473 1474 1474 1475 1476 1477 1477 1478 1479 1479 1480 1481 1481 1482 1483 1483 1484 1484 1484 1484
1435 1435 1436 1436 1437 1438 1438 1439 1439 1440 1441 1442 1443 1444 1445 1446 1447 1448 1449 1450 1451 1452 1452 1453 1454 1454 1455 1456 1456 1457 1458 1459 1459 1460 1461 1462 1463 1464 1464 1465 1466 1467 1468 1469 1469 1470 1471 1471 1472 1472 1473 1474 1474 1475 1476 1477 1478 1478 1479 1479 1480 1481 1481 1482 1482 1483 1483 1483 1483
1436 1436 1437 1438 1438 1439 1439 1440 1441 1441 1442 1443 1444 1445 1446 1447 1448 1448 1449 1450 1451 1452 1453 1453 1454 1454 1455 1455 1456 1457 1457 1458 1459 1460 1461 1462 1462 1463 1464 1465 1466 1466 1467 1468 1469 1469 1470 1471 1471 1472 1473 1473 1474 1475 1476 1476 1477 1478 1478 1479 1479 1480 1480 1481 1481 1481 1481 1482 1482
1437 1438 1438 1439 1439 1440 1441 1442 1442 1443 1444 1444 1445 1446 1446 1447 1448 1449 1449 1450 1451 1452 1452 1453 1454 1454 1454 1455 1455 1456 1457 1458 1459 1460 1460 1461 1462 1463 1464 1464 1465 1466 1467 1467 1468 1469 1469 1470 1471 1471 1472 1473 1474 1474 1475 1476 1476 1477 1478 1478 1479 1479 1479 1479 1479 1480 1480 1480 1480
1438 1439 1439 1440 1441 1441 1442 1443 1443 1444 1444 1445 1446 1446 1447 1448 1448 1449 1449 1450 1451 1452 1452 1453 1453 1454 1454 1455 1455 1456 1457 1458 1459 1459 1460 1461 1462 1463 1464 1464 1465 1465 1466 1467 1468 1468 1469 1469 1470 1471 1471 1472 1473 1474 1474 1475 1476 1476 1477 1477 1478 1478 1478 1478 1478 1479 1479 1479 1479
1439 1440 1440 1441 1441 1442 1443 1443 1444 1444 1445 1446 1446 1447 1447 1448 1449 1449 1449 1450 1451 1451 1452 1453 1453 1453 1454 1454 1455 1456 1457 1458 1459 1459 1460 1461 1462 1462 1463 1464 1464 1465 1465 1466 1467 1468 1469 1469 1469 1470 1471 1472 1472 1473 1474 1474 1475 1475 1476 1476 1476 1477 1477 1477 1477 1477 1478 1478 1478
1440 1440 1441 1442 1442 1443 1443 1444 1444 1445 1445 1446 1447 1447 1448 1448 1449 1449 1449 1450 1451 1451 1452 1452 1453 1453 1454 1454 1455 1456 1457 1457 1458 1459 1460 1460 1461 1462 1463 1463 1464 1464 1465 1466 1467 1467 1468 1469 1469 1470 1470 1471 1472 1473 1473 1474 1474 1474 1475 1475 1475 1475 1475 1476 1476 1476 1477 1477 1477
1441 1441 1442 1442 1443 1443 1444 1444 1445 1445 1446 1446 1447 1448 1448 1448 1449 1449 1449 1450 1450 1451 1451 1452 1452 1453 1453 1454 1454 1455 1456 1457 1458 1459 1459 1460 1460 1461 1462 1463 1463 1464 1465 1465 1466 1467 1468 1468 1469 1469 1470 1471 1471 1472 1473 1473 1473 1473 1474 1474 1474 1474 1474 1475 1475 1475 1476 1476 1476
Wind_Speed
29 29 28 28 29 31 31 29 27 27 27 27 26 25 25 27 27 27 26 26 25 26 27 28 29 27 26 25 25 25 26 26 27 27 27 26 25 24 22 21 20 19 20 20 20 20 20 20 20 21 21 21 20 20 20 20 19 19 19 18 18 17 16 15 14 13 11 11 12
27 28 29 28 30 31 30 27 26 25 25 23 21 21 22 24 27 29 28 27 27 26 27 27 28 27 26 24 24 23 23 24 24 25 25 25 24 24 23 22 22 22 21 21 20 19 19 20 21 20 19 19 19 19 19 19 19 19 18 18 18 17 17 16 14 11 9 9 12
24 25 27 28 29 28 26 24 23 23 23 21 18 18 20 24 28 30 29 28 27 26 26 26 26 26 26 25 24 23 23 23 23 24 24 25 25 24 24 24 23 22 21 19 18 18 19 20 20 19 18 18 19 20 20 19 19 18 18 17 17 17 16 15 12 10 9 12 15
23 22 24 25 25 23 21 19 19 20 21 19 17 16 19 23 27 29 28 27 26 26 25 25 26 26 26 26 25 25 24 24 25 25 26 26 26 26 25 24 22 20 18 17 16 16 18 19 18 18 18 18 19 20 20 19 18 17 17 16 16 16 15 13 11 10 12 15 18
25 22 21 20 19 17 15 14 16 17 17 18 16 15 17 20 24 26 26 26 26 25 25 26 26 26 26 26 27 27 27 27 27 27 26 26 25 24 22 20 18 16 15 14 14 15 16 17 17 17 17 17 18 18 18 17 17 16 16 15 14 13 12 10 10 12 14 16 17
30 27 25 22 18 17 16 16 17 17 17 17 16 15 16 17 19 21 22 23 23 24 24 25 25 25 25 26 27 28 28 27 25 24 22 21 20 19 18 17 16 15 14 13 13 13 14 15 16 17 17 17 17 17 17 16 16 15 14 13 12 11 10 10 11 13 15 17 16
35 33 31 28 25 23 23 22 21 20 19 18 17 17 17 18 18 17 17 18 19 20 20 21 21 21 22 23 24 25 24 23 21 20 19 18 17 16 16 15 15 14 14 13 12 12 11 12 13 15 17 17 17 16 16 16 15 14 13 12 11 10 10 11 12 14 16 17 17
38 36 35 33 31 30 29 27 24 22 21 20 19 19 20 21 21 20 17 16 16 16 16 16 16 16 17 19 20 20 20 19 18 18 18 17 16 16 16 16 15 15 15 14 12 11 9 8 9 11 13 16 17 17 17 16 15 14 13 12 11 11 11 12 13 14 15 16 18
38 38 37 36 34 33 31 29 27 24 21 20 19 20 21 23 23 22 20 17 15 15 15 14 14 14 14 15 16 17 18 18 18 18 18 18 17 17 16 16 17 17 16 15 13 10 7 6 6 7 9 12 14 17 18 17 16 16 15 14 14 13 14 14 15 15 15 16 19
38 38 37 36 34 33 31 28 26 24 21 19 18 19 21 23 24 22 20 16 15 14 14 15 16 17 17 16 16 16 17 17 17 17 18 17 16 15 15 14 15 15 14 12 10 8 7 7 7 7 7 8 10 14 17 19 19 18 18 18 17 17 16 16 16 16 17 19 23
37 37 36 35 33 31 30 27 26 23 21 18 17 18 20 22 22 20 17 15 14 14 14 15 17 18 20 21 20 20 19 18 17 16 16 15 14 13 12 11 10 9 8 8 10 14 16 17 16 14 11 9 8 10 14 18 19 20 20 21 21 20 19 17 16 17 19 22 26
39 38 36 35 32 30 28 26 24 22 20 19 17 17 18 18 17 15 14 13 13 14 16 17 18 20 22 23 24 24 24 23 21 18 17 16 15 13 11 9 7 7 8 11 14 18 21 24 25 24 21 16 12 11 13 16 18 20 21 22 22 21 19 17 16 18 21 25 28
38 39 39 37 35 31 28 26 24 22 21 20 19 18 17 14 12 10 10 11 12 13 15 17 19 21 23 24 25 25 25 25 24 22 21 19 17 14 12 10 8 8 10 13 15 17 20 24 27 29 29 27 22 18 17 18 19 21 22 22 21 19 17 17 18 21 25 28 28
34 36 39 40 39 37 33 30 27 25 23 22 20 19 18 15 11 8 8 10 10 11 14 17 19 22 23 24 24 24 24 24 23 23 22 21 19 17 15 13 13 13 14 17 18 20 22 25 27 29 31 32 31 28 25 24 25 26 26 24 22 19 17 17 19 23 28 30 29
26 28 31 35 38 40 39 36 33 29 26 24 21 20 20 19 15 11 10 10 10 11 13 16 19 22 24 24 24 23 22 22 22 22 22 22 21 21 21 20 20 20 21 22 24 25 27 29 30 30 31 32 34 33 32 31 31 31 31 29 27 24 21 20 21 24 28 31 31
19 20 21 25 29 33 35 36 33 30 27 25 23 21 21 21 20 17 15 13 12 12 14 15 18 20 22 24 24 24 23 22 22 23 24 25 25 26 27 27 28 29 29 28 29 30 32 33 32 32 32 32 33 34 35 36 35 35 34 32 30 27 25 23 23 25 29 32 33
15 14 15 17 19 22 25 27 28 27 26 25 23 21 21 22 23 23 22 21 18 15 15 15 17 19 21 23 25 25 25 24 24 24 25 27 28 29 30 31 33 34 34 33 33 35 36 35 33 33 34 34 35 35 36 36 36 35 33 31 28 26 25 25 24 26 30 34 34
13 13 13 14 14 15 17 19 21 23 23 23 21 19 18 20 22 23 23 23 21 18 16 15 17 19 21 23 25 26 26 26 26 26 26 26 28 29 29 30 31 32 32 32 33 35 36 35 34 34 35 35 35 35 35 34 34 33 30 27 25 24 24 24 25 28 32 35 34
13 12 12 13 14 14 14 15 15 16 17 17 16 15 15 16 17 18 18 18 18 17 16 16 18 19 20 22 23 24 24 25 27 28 28 27 27 28 28 28 28 27 26 26 29 33 34 33 33 34 35 35 34 32 31 31 31 30 27 24 23 22 23 24 27 31 34 34 33
13 11 10 10 11 11 12 12 11 11 12 12 13 13 14 14 14 15 15 16 17 17 18 18 19 20 21 21 21 21 22 23 25 27 29 29 29 29 28 27 26 25 24 24 27 29 30 30 31 32 32 31 30 28 28 29 28 26 25 23 23 23 24 26 29 31 32 32 31
13 12 11 11 10 9 9 8 7 7 7 9 11 12 13 13 13 14 15 16 18 19 20 20 20 20 20 20 20 20 21 22 24 26 28 29 29 28 27 26 26 25 25 25 26 26 25 26 27 28 27 26 25 25 26 26 25 23 23 22 23 23 25 27 28 30 30 29 27
12 12 12 12 12 12 11 10 8 7 6 7 9 11 12 13 14 15 17 18 19 19 20 20 19 19 20 20 21 21 22 23 24 25 26 26 26 25 25 25 25 25 25 24 23 22 22 23 24 24 23 23 23 24 24 24 23 22 22 22 22 23 25 26 27 27 26 24 22
12 12 12 13 14 14 14 14 13 11 10 9 10 11 12 14 15 17 18 19 19 19 19 20 20 20 21 22 23 24 24 24 24 23 23 23 22 22 22 22 23 23 22 21 20 20 21 22 22 22 22 22 23 24 24 24 24 23 23 23 23 23 23 23 23 22 20 17 16
14 15 15 16 17 17 17 16 16 15 15 14 14 14 14 15 16 17 18 18 19 19 20 21 21 21 22 23 24 24 24 23 22 21 21 20 19 19 19 19 20 20 20 20 20 20 21 22 22 22 22 22 23 24 25 25 25 25 25 24 23 21 19 18 16 14 12 12 12
16 16 17 18 18 18 18 18 18 18 18 17 17 17 17 17 17 17 17 17 18 19 20 20 20 21 22 23 23 23 23 22 20 19 19 18 18 17 18 18 18 19 20 20 21 22 22 22 22 22 22 23 24 25 25 26 26 26 25 23 21 17 15 12 11 10 10 11 12
16 17 17 18 18 18 19 20 20 20 19 19 18 18 18 18 17 17 17 17 17 18 18 18 19 19 20 21 21 21 21 20 19 18 18 18 18 18 18 19 20 20 21 22 22 22 22 21 21 21 21 21 22 22 23 23 23 23 22 20 18 15 12 10 9 10 11 12 13
18 18 19 19 19 19 20 20 20 20 19 19 18 18 18 17 17 16 16 16 17 17 17 17 17 18 19 20 20 20 20 19 19 18 18 18 18 18 19 20 21 21 22 22 22 21 20 19 18 17 17 17 18 18 18 18 18 18 17 16 15 13 11 10 10 11 12 13 13
17 17 18 18 18 19 19 19 18 18 18 18 18 17 17 16 16 16 16 17 17 17 17 16 17 17 18 18 18 19 18 18 18 18 18 18 18 18 19 20 20 20 20 19 18 17 16 15 14 14 13 13 12 12 12 13 13 13 13 12 12 11 10 10 11 12 13 13 13
14 14 15 15 16 17 17 17 17 17 18 18 18 17 17 16 16 16 17 18 18 17 17 16 17 17 17 18 17 17 17 17 17 16 16 16 17 17 18 18 18 17 16 15 14 13 13 12 11 11 10 10 9 9 9 10 10 10 10 10 10 10 10 11 12 12 12 12 12
12 12 13 14 14 15 15 15 16 16 17 17 17 17 17 17 17 17 17 18 18 17 17 16 16 16 17 17 16 16 15 15 15 15 15 15 15 16 16 16 15 14 13 12 12 12 11 11 10 10 9 9 9 8 9 9 9 9 9 9 9 10 10 11 11 11 11 11 11
10 11 11 12 12 13 13 14 14 15 15 16 16 16 16 16 16 17 17 17 17 17 17 16 15 15 15 15 15 14 14 14 14 14 14 14 14 14 14 14 13 12 12 12 11 11 10 9 9 8 8 8 8 8 8 9 9 9 9 9 10 10 11 11 11 11 11 11 11
7 8 9 10 10 11 11 11 12 12 13 13 14 14 14 14 15 15 15 15 16 16 15 15 14 14 14 14 14 14 13 14 14 14 14 14 14 13 13 12 12 12 11 11 10 9 9 8 8 8 7 7 8 8 9 9 9 10 10 10 10 11 11 11 11 11 11 12 12
5 6 6 7 8 8 8 8 9 9 10 10 10 11 11 11 12 12 13 13 14 14 15 14 14 14 14 14 14 14 14 14 14 14 14 13 13 13 12 11 11 11 11 10 9 9 8 8 8 8 8 8 9 9 10 10 11 11 11 11 11 11 11 11 12 12 12 12 12
3 4 4 4 5 6 7 7 7 7 7 7 8 8 9 9 10 11 12 13 14 14 14 14 14 14 14 14 14 14 14 14 14 13 13 12 12 11 11 11 11 11 10 10 9 9 9 9 9 9 9 9 10 10 11 11 11 12 12 12 12 12 12 12 12 12 12 11 11
3 3 4 3 4 5 6 7 7 7 7 7 8 9 9 10 11 12 12 13 13 14 14 14 14 14 14 14 14 14 14 13 13 12 11 11 11 10 10 11 11 11 10 10 10 9 9 9 9 9 9 10 10 10 11 11 11 12 12 12 12 12 12 12 12 11 11 10 10
3 3 4 4 4 5 6 7 8 8 9 9 10 10 10 10 11 11 12 12 12 12 12 12 12 12 12 12 13 12 12 12 11 11 10 10 10 11 11 11 11 11 11 10 10 9 9 9 9 9 10 10 10 11 11 11 11 11 12 12 12 12 11 11 11 10 10 9 9
3 3 4 4 5 6 6 7 8 8 9 9 9 9 9 9 9 10 10 10 10 10 11 11 11 11 11 11 11 11 11 11 11 11 11 11 11 11 11 11 11 11 10 10 9 9 9 9 9 10 10 10 11 11 11 11 11 11 11 11 11 11 11 10 10 9 9 8 8
4 4 4 5 6 7 7 8 8 9 9 9 9 8 8 8 8 8 9 9 9 10 10 10 10 10 10 11 11 11 11 11 11 11 11 11 11 11 11 11 11 10 10 9 9 9 9 9 10 10 11 11 11 11 11 11 11 12 12 12 11 11 10 10 9 9 8 8 8
5 5 5 5 6 7 7 8 8 8 8 8 8 8 8 8 8 8 8 9 9 9 10 10 10 10 10 10 10 10 10 10 11 11 11 11 11 11 11 11 10 10 10 9 9 9 9 10 10 11 11 11 11 11 11 12 12 12 12 11 11 10 10 9 9 9 8 9 9
5 5 5 6 6 6 7 7 7 8 8 8 8 8 8 8 8 8 8 9 9 9 9 10 10 10 10 10 10 10 10 10 10 11 11 11 11 11 11 11 11 11 10 10 10 10 10 11 11 11 11 12 12 12 12 12 12 12 11 11 10 10 9 9 9 9 9 9 9
5 6 6 6 7 7 7 7 7 7 8 7 8 8 8 8 8 8 8 8 8 9 9 9 9 9 9 9 10 10 10 10 11 11 12 12 12 12 12 12 12 11 11 11 11 11 12 12 12 12 12 12 12 12 12 12 11 11 10 10 10 10 9 9 9 9 9 9 9
Wind_Direction
182 179 178 179 181 180 178 174 170 166 164 165 170 175 179 179 179 180 182 184 185 185 185 185 186 186 186 185 186 190 194 197 199 201 204 206 208 210 212 213 213 212 211 210 210 211 213 215 218 222 223 221 217 214 212 210 210 211 211 210 210 210 209 208 206 205 209 222 242
182 180 180 181 182 182 179 175 171 167 166 170 178 185 188 186 183 182 181 182 184 185 185 186 188 189 190 190 191 193 196 199 202 204 206 208 210 212 213 213 212 210 207 203 203 207 213 218 221 220 215 210 205 202 201 202 202 203 203 204 204 205 204 203 202 203 214 236 252
186 183 182 183 183 182 179 174 170 168 168 172 185 193 192 190 186 183 181 181 182 184 185 187 189 191 193 194 195 197 200 203 206 207 208 209 210 211 211 210 207 203 198 194 195 203 212 217 218 213 206 200 197 195 195 196 196 197 198 199 200 200 200 200 201 207 223 239 245
194 189 185 184 183 180 176 173 173 172 173 177 184 188 189 189 187 184 182 181 183 185 187 189 191 194 196 198 199 200 202 205 208 208 208 207 206 205 204 202 199 194 190 189 194 203 212 217 215 209 204 201 199 197 195 193 192 192 192 193 194 195 196 198 203 212 223 231 232
202 199 194 190 186 183 182 185 188 188 184 180 179 180 184 187 186 184 182 182 183 186 188 191 193 195 198 200 201 202 204 205 206 205 202 199 197 196 194 193 191 189 189 192 199 208 215 218 216 211 208 207 205 202 197 191 187 186 186 187 188 192 196 202 211 217 222 227 223
207 210 212 211 209 208 211 216 217 212 202 192 188 187 188 190 187 183 179 179 180 181 184 186 189 192 195 198 201 202 203 203 201 198 195 192 190 188 187 186 186 187 189 194 200 208 214 218 217 215 214 213 211 206 197 189 184 182 183 187 191 197 205 214 221 225 228 231 230
210 214 218 219 222 226 229 229 225 218 212 206 205 204 203 204 202 197 191 185 181 179 178 178 179 182 187 192 195 197 196 195 193 192 191 189 187 184 181 179 178 178 181 185 190 195 202 210 215 217 217 216 213 207 197 189 184 183 186 191 198 205 213 221 226 230 234 238 242
211 214 217 220 224 230 233 233 230 223 218 216 216 216 217 217 218 217 214 207 200 195 191 187 183 179 179 181 183 185 184 183 185 187 188 185 180 174 170 167 165 165 167 170 172 175 183 196 208 215 217 216 212 206 199 192 187 186 190 196 201 206 213 219 223 228 234 240 244
212 213 215 219 223 228 232 233 232 229 226 224 224 224 223 222 221 222 221 217 213 211 212 213 212 207 198 186 178 175 175 177 181 184 181 176 170 165 161 158 156 155 155 156 157 162 173 192 210 219 221 218 213 206 200 194 190 189 192 196 200 204 209 214 219 223 229 236 241
213 213 215 217 221 225 228 229 230 230 229 228 228 226 222 219 218 219 219 219 217 216 219 224 227 228 226 218 201 185 177 176 177 177 174 171 169 168 166 163 160 158 158 162 173 192 213 228 239 244 241 231 221 210 201 194 190 189 192 195 197 199 204 212 219 223 227 233 239
214 215 215 216 218 220 222 222 224 226 227 226 224 218 213 211 212 215 220 226 229 230 230 231 230 230 231 230 222 209 196 188 183 181 181 184 187 190 190 189 188 190 200 224 247 255 256 255 256 258 258 253 240 220 205 196 190 190 192 194 194 194 198 207 219 229 235 238 241
217 217 217 217 216 215 214 214 216 220 222 220 213 204 200 202 208 218 229 240 247 247 242 237 232 229 228 227 224 219 212 206 203 202 205 208 210 211 212 216 228 249 272 283 282 275 268 263 261 260 259 256 248 233 218 207 199 194 193 193 192 193 196 206 221 236 245 248 246
218 219 220 220 219 217 214 213 215 218 219 215 206 196 192 196 205 219 235 247 254 250 241 234 228 226 224 224 222 219 216 214 212 212 214 216 216 218 223 235 256 281 298 304 297 286 276 270 267 264 262 258 251 241 230 222 214 208 202 199 198 201 207 218 230 241 249 254 251
211 215 218 220 221 220 220 220 222 223 221 216 205 199 199 203 206 214 229 241 242 235 228 222 220 219 219 220 220 218 215 213 211 211 212 213 216 223 233 244 259 276 291 300 299 292 285 279 275 271 266 261 255 247 238 230 225 221 217 215 216 223 232 242 246 249 251 254 253
193 200 206 211 216 219 221 224 227 227 225 220 211 206 207 213 215 219 225 227 219 214 213 213 213 214 215 216 216 214 212 210 211 211 210 211 217 227 238 247 256 266 277 287 292 293 289 284 280 274 267 261 255 248 241 235 229 226 225 226 230 237 247 257 260 257 254 252 251
171 177 184 192 200 207 212 217 220 220 218 212 209 210 215 221 225 228 227 222 213 207 208 211 212 214 216 216 215 213 211 211 214 216 217 217 223 233 242 249 256 261 267 274 281 285 285 282 277 270 264 258 252 246 240 234 229 226 226 229 234 242 252 261 264 261 255 250 248
146 151 159 168 178 188 196 200 202 202 199 196 196 204 216 224 228 230 232 232 229 225 222 221 221 222 222 222 219 217 215 217 218 218 220 224 230 238 245 251 256 259 261 264 270 274 276 274 269 262 257 252 247 241 235 228 223 222 224 230 239 248 256 261 261 256 250 246 245
126 132 138 145 154 164 173 180 185 188 189 188 186 191 202 212 217 220 224 228 232 235 236 235 235 235 234 232 230 227 226 227 225 222 222 229 236 243 249 254 256 255 254 256 261 265 267 266 259 253 248 245 241 237 229 221 216 218 225 234 244 251 254 253 250 245 242 241 243
118 126 133 138 139 141 147 155 165 174 179 181 179 179 183 189 195 200 204 209 217 224 232 239 243 245 245 244 243 242 240 238 234 230 229 236 245 252 257 258 255 249 244 243 249 256 259 258 251 244 240 237 234 230 225 217 214 218 226 234 239 241 240 238 236 234 235 237 241
109 115 123 131 134 135 137 141 148 156 164 168 171 173 176 181 186 191 196 200 205 212 222 232 240 245 248 250 250 250 247 244 239 236 237 243 251 257 260 258 250 240 233 232 238 246 251 249 242 236 231 228 225 222 218 215 215 219 225 230 229 228 227 227 227 229 231 235 239
108 109 111 113 118 122 126 130 138 150 164 172 177 179 183 187 193 198 203 207 210 215 221 227 234 239 243 245 246 244 242 240 238 237 240 244 249 253 253 249 241 233 228 228 233 239 242 238 232 227 223 219 217 215 214 215 218 223 228 230 229 227 226 226 227 229 231 234 236
119 117 117 118 121 125 129 133 135 142 160 186 195 196 195 198 201 205 207 211 215 219 222 224 226 229 232 234 233 232 231 231 231 234 236 239 240 240 239 235 231 228 227 228 230 232 231 228 225 222 219 216 215 215 216 220 225 229 234 236 236 233 230 229 229 230 231 232 233
140 139 140 141 143 146 149 152 153 157 169 190 205 210 210 209 209 208 207 208 211 214 215 216 217 219 223 224 224 223 221 222 224 226 228 228 226 224 223 223 223 224 225 225 224 223 223 224 224 222 220 219 219 220 222 226 230 234 238 240 239 236 231 228 228 228 229 229 232
163 163 164 164 165 168 171 176 180 185 193 202 209 213 215 214 212 209 205 204 206 208 209 210 212 215 218 219 219 217 216 216 217 218 219 218 215 214 215 217 219 221 221 220 219 219 221 223 224 224 224 224 225 227 229 231 233 236 238 239 237 234 230 228 227 228 231 235 239
182 182 182 182 184 187 193 198 203 206 209 212 214 215 215 215 213 210 207 206 207 208 209 210 211 214 217 217 217 215 214 214 214 215 214 213 212 213 215 217 218 218 218 217 217 219 220 222 224 225 226 228 230 231 233 234 234 235 236 235 234 232 232 233 235 239 243 245 245
201 201 201 201 202 205 209 213 215 215 216 216 217 217 216 216 215 214 212 211 211 212 212 213 214 216 218 218 217 216 216 215 216 216 216 215 214 214 216 216 216 216 215 215 215 216 218 219 221 223 226 229 231 232 232 232 232 231 231 231 231 233 236 239 243 246 246 245 244
212 213 214 214 214 215 216 217 217 217 218 218 218 218 218 218 218 218 218 217 216 215 215 216 217 218 219 219 218 217 217 217 218 218 219 219 218 217 217 216 215 214 213 212 212 213 214 216 218 221 224 226 228 228 228 228 228 228 228 228 229 231 234 239 242 243 243 242 242
213 215 217 218 218 217 217 217 218 219 219 220 220 220 220 220 220 221 222 222 220 218 217 216 217 218 219 218 217 216 215 215 216 217 219 220 220 220 218 217 214 211 209 209 209 210 212 215 218 220 221 223 223 224 226 229 231 231 231 230 229 231 233 236 236 236 236 238 239
212 213 215 217 218 218 218 218 219 220 222 224 223 222 221 221 222 224 225 225 223 220 218 216 216 216 216 216 214 212 211 212 214 216 217 219 220 219 217 214 210 208 207 208 211 215 219 222 223 224 225 227 229 232 235 239 241 241 240 239 239 238 237 234 232 231 232 234 238
209 212 214 216 217 218 218 219 220 222 224 226 226 226 224 224 224 225 226 226 224 221 218 216 215 213 212 212 211 209 209 210 213 215 215 215 215 214 211 209 207 206 209 214 219 224 226 227 227 227 228 230 234 239 244 248 251 251 251 249 247 243 238 234 231 231 234 238 243
207 211 213 214 215 217 218 220 221 223 225 227 229 229 228 227 227 227 227 225 222 219 216 213 211 208 206 206 205 205 206 209 212 213 213 211 209 207 206 206 207 210 216 221 225 227 228 227 226 226 227 229 233 238 243 247 249 250 248 246 242 238 235 234 235 237 241 245 250
204 207 209 208 209 210 212 215 219 222 225 226 228 229 229 229 228 226 223 220 216 212 208 205 203 201 200 200 200 201 205 208 211 211 210 207 204 204 205 207 211 216 221 224 225 225 225 223 222 221 222 223 226 229 233 237 239 239 238 237 235 235 235 237 240 242 246 249 252
183 190 194 194 194 193 194 198 205 212 218 221 222 223 223 222 219 215 211 206 203 201 199 197 196 197 198 199 200 203 206 209 211 211 208 204 202 203 206 210 215 218 221 222 221 219 216 215 215 216 218 220 222 224 227 230 232 233 234 233 234 235 237 238 241 243 246 248 251
144 151 157 163 167 167 167 169 176 187 196 200 201 201 201 200 198 194 191 190 190 191 192 193 194 196 198 201 203 206 208 210 211 210 208 206 204 205 207 210 214 217 217 216 214 210 209 209 211 214 217 220 222 224 227 229 231 232 233 234 234 236 237 238 240 242 244 246 248
107 116 122 129 138 142 146 149 154 161 166 169 170 171 173 175 177 178 180 182 185 188 191 194 197 199 202 205 208 209 210 210 210 210 209 209 208 207 208 210 213 213 213 211 209 207 206 208 212 216 219 222 225 227 229 231 232 233 233 234 235 236 237 238 239 241 242 245 247
94 109 121 132 138 141 143 146 149 153 156 159 161 163 165 168 172 175 179 184 189 193 197 201 204 205 207 209 210 211 210 209 208 209 209 210 209 209 209 210 212 212 211 209 208 207 207 210 215 219 223 226 229 230 232 233 233 234 235 236 236 237 238 238 239 241 243 245 248
111 121 133 146 152 155 156 158 161 162 164 168 170 173 175 178 182 186 190 195 199 203 206 209 210 210 211 211 211 210 209 207 206 207 209 210 210 210 210 211 213 214 214 213 212 211 212 215 220 225 228 231 233 235 235 236 237 238 238 238 238 238 239 239 241 243 245 247 249
141 146 152 159 164 167 170 173 176 179 182 185 188 191 193 196 199 202 206 208 208 208 209 210 210 210 211 211 212 212 210 208 207 208 209 210 211 212 213 215 217 219 221 221 220 220 220 223 227 231 234 236 238 239 239 239 240 240 240 239 239 239 239 240 242 244 246 248 249
167 169 171 175 180 183 185 186 188 190 193 196 197 198 200 202 204 206 208 208 207 206 206 205 207 208 210 212 213 214 214 213 212 212 213 214 215 216 218 220 223 226 228 230 229 229 228 229 231 234 237 239 240 240 240 239 239 239 239 240 240 241 241 241 242 243 245 247 248
195 194 195 195 197 199 200 200 200 199 198 196 194 193 194 196 198 200 202 202 202 203 204 205 207 209 211 214 216 218 218 218 218 219 220 220 221 222 223 224 227 230 233 234 234 234 232 232 233 235 236 237 238 238 237 237 237 239 240 243 244 244 244 243 242 241 242 244 246
208 208 208 208 208 208 208 207 208 207 204 199 194 193 194 196 197 198 199 200 202 205 207 209 211 213 215 217 219 221 223 224 224 225 226 227 227 227 227 227 228 230 233 234 235 234 234 233 233 233 234 235 235 235 236 237 239 242 245 247 248 248 247 246 244 241 239 239 242